Private Wetterstation Wechselburg
Wetterdaten: Samstag, 20.03.2021
Datum Zeit Temp. +2m Bodentemp. Temp.+5cm Temp. Wind Windchill X Diff Temp. Feuchte +2m Feuchte +5cm Luftdruck Regen Wind Richtung Richtung Sonnenschein Taupunkt Windchill Windben
20.03.2021 00:00 -2,4 C 4,7 C -3,1 C -3,1 C -4,4 C 0,0 C 78 % 89 % 1027,4 hPa 0,0 l/m 0,0 km/h (0 Bft) S-SW 202 0 min -5,7 C -4,4 C 0,0 km/h (0 Bft)
20.03.2021 00:05 -2,5 C 4,7 C -3,1 C -3,2 C -4,5 C 0,0 C 78 % 89 % 1027,4 hPa 0,0 l/m 0,2 km/h (0 Bft) NW 315 0 min -5,8 C -4,5 C 0,0 km/h (0 Bft)
20.03.2021 00:10 -2,5 C 4,7 C -3,1 C -3,2 C -4,5 C 0,0 C 78 % 89 % 1027,6 hPa 0,0 l/m 0,3 km/h (0 Bft) N-NW 337 0 min -5,8 C -4,5 C 0,0 km/h (0 Bft)
20.03.2021 00:15 -2,5 C 4,7 C -3,2 C -3,2 C -4,5 C 0,0 C 78 % 89 % 1027,6 hPa 0,0 l/m 0,0 km/h (0 Bft) N-NO 22 0 min -5,8 C -4,5 C 0,0 km/h (0 Bft)
20.03.2021 00:20 -2,5 C 4,8 C -3,3 C -3,2 C -4,6 C 0,0 C 78 % 89 % 1027,6 hPa 0,0 l/m 0,0 km/h (0 Bft) W 270 0 min -5,8 C -4,6 C 0,0 km/h (0 Bft)
20.03.2021 00:25 -2,7 C 4,8 C -3,4 C -3,4 C -4,8 C 0,0 C 78 % 89 % 1027,6 hPa 0,0 l/m 0,0 km/h (0 Bft) N-NW 337 0 min -6,0 C -4,8 C 0,0 km/h (0 Bft)
20.03.2021 00:30 -2,7 C 4,8 C -3,3 C -3,4 C -4,8 C 0,0 C 78 % 89 % 1027,9 hPa 0,0 l/m 0,2 km/h (0 Bft) S 180 0 min -6,0 C -4,8 C 2,7 km/h (1 Bft)
20.03.2021 00:35 -2,8 C 4,8 C -3,4 C -3,5 C -4,8 C 0,0 C 78 % 89 % 1027,9 hPa 0,0 l/m 0,2 km/h (0 Bft) N-NO 22 0 min -6,1 C -4,8 C 0,0 km/h (0 Bft)
20.03.2021 00:40 -2,9 C 4,8 C -3,4 C -3,5 C -4,8 C 0,0 C 78 % 89 % 1027,9 hPa 0,0 l/m 0,0 km/h (0 Bft) NW 315 0 min -6,2 C -4,8 C 0,0 km/h (0 Bft)
20.03.2021 00:45 -2,9 C 4,6 C -3,5 C -3,5 C -4,8 C 0,0 C 78 % 89 % 1027,9 hPa 0,0 l/m 0,0 km/h (0 Bft) N-NO 22 0 min -6,2 C -4,8 C 0,0 km/h (0 Bft)
20.03.2021 00:50 -2,9 C 4,6 C -3,5 C -3,5 C -4,8 C 0,0 C 79 % 89 % 1027,9 hPa 0,0 l/m 0,2 km/h (0 Bft) N-NO 22 0 min -6,0 C -4,8 C 3,1 km/h (1 Bft)
20.03.2021 00:55 -3,0 C 4,6 C -3,6 C -3,6 C -4,8 C 0,0 C 79 % 89 % 1027,9 hPa 0,0 l/m 0,2 km/h (0 Bft) W 270 0 min -6,1 C -4,8 C 0,0 km/h (0 Bft)
20.03.2021 01:00 -2,9 C 4,6 C -3,6 C -3,6 C -4,9 C 0,0 C 79 % 89 % 1027,9 hPa 0,0 l/m 0,0 km/h (0 Bft) N 360 0 min -6,0 C -4,9 C 0,0 km/h (0 Bft)
20.03.2021 01:05 -2,9 C 4,6 C -3,7 C -3,6 C -5,0 C 0,0 C 79 % 89 % 1027,9 hPa 0,0 l/m 0,0 km/h (0 Bft) W-NW 292 0 min -6,0 C -5,0 C 0,0 km/h (0 Bft)
20.03.2021 01:10 -3,1 C 4,6 C -3,7 C -3,7 C -5,0 C 0,0 C 79 % 89 % 1027,9 hPa 0,0 l/m 0,0 km/h (0 Bft) NW 315 0 min -6,2 C -5,0 C 0,0 km/h (0 Bft)
20.03.2021 01:15 -3,1 C 4,6 C -3,8 C -3,7 C -5,0 C 0,0 C 79 % 89 % 1027,9 hPa 0,0 l/m 0,0 km/h (0 Bft) W-NW 292 0 min -6,2 C -5,0 C 0,0 km/h (0 Bft)
20.03.2021 01:20 -3,2 C 4,6 C -3,9 C -3,8 C -5,1 C 0,0 C 79 % 89 % 1027,9 hPa 0,0 l/m 0,0 km/h (0 Bft) N 360 0 min -6,3 C -5,1 C 0,0 km/h (0 Bft)
20.03.2021 01:25 -3,3 C 4,6 C -3,9 C -4,0 C -5,3 C 0,0 C 79 % 89 % 1027,9 hPa 0,0 l/m 0,0 km/h (0 Bft) N-NW 337 0 min -6,4 C -5,3 C 0,0 km/h (0 Bft)
20.03.2021 01:30 -3,3 C 4,6 C -4,0 C -4,0 C -5,3 C 0,0 C 79 % 90 % 1028,1 hPa 0,0 l/m 0,0 km/h (0 Bft) W-NW 292 0 min -6,4 C -5,3 C 0,0 km/h (0 Bft)
20.03.2021 01:35 -3,3 C 4,6 C -4,0 C -4,0 C -5,3 C 0,0 C 79 % 90 % 1028,1 hPa 0,0 l/m 0,0 km/h (0 Bft) O-NO 67 0 min -6,4 C -5,3 C 0,0 km/h (0 Bft)
20.03.2021 01:40 -3,3 C 4,6 C -4,0 C -4,0 C -5,3 C 0,0 C 80 % 90 % 1028,1 hPa 0,0 l/m 0,0 km/h (0 Bft) N 360 0 min -6,2 C -5,3 C 0,0 km/h (0 Bft)
20.03.2021 01:45 -3,5 C 4,6 C -4,0 C -4,1 C -5,4 C 0,0 C 80 % 90 % 1028,1 hPa 0,0 l/m 0,0 km/h (0 Bft) N-NO 22 0 min -6,4 C -5,4 C 0,0 km/h (0 Bft)
20.03.2021 01:50 -3,6 C 4,6 C -4,0 C -4,2 C -5,5 C 0,0 C 80 % 90 % 1028,3 hPa 0,0 l/m 0,0 km/h (0 Bft) N-NO 22 0 min -6,5 C -5,5 C 0,0 km/h (0 Bft)
20.03.2021 01:55 -3,6 C 4,6 C -4,0 C -4,2 C -5,5 C 0,0 C 80 % 90 % 1028,3 hPa 0,0 l/m 0,0 km/h (0 Bft) O-NO 67 0 min -6,5 C -5,5 C 0,0 km/h (0 Bft)
20.03.2021 02:00 -3,6 C 4,6 C -4,0 C -4,2 C -5,4 C 0,0 C 80 % 90 % 1028,3 hPa 0,0 l/m 0,0 km/h (0 Bft) N-NW 337 0 min -6,5 C -5,4 C 0,0 km/h (0 Bft)
20.03.2021 02:05 -3,6 C 4,5 C -4,1 C -4,2 C -5,5 C 0,0 C 80 % 90 % 1028,3 hPa 0,0 l/m 0,0 km/h (0 Bft) O-NO 67 0 min -6,5 C -5,5 C 0,0 km/h (0 Bft)
20.03.2021 02:10 -3,7 C 4,5 C -4,1 C -4,3 C -5,5 C 0,0 C 81 % 90 % 1028,3 hPa 0,0 l/m 0,0 km/h (0 Bft) NW 315 0 min -6,5 C -5,5 C 0,0 km/h (0 Bft)
20.03.2021 02:15 -3,7 C 4,5 C -4,1 C -4,3 C -5,6 C 0,0 C 81 % 90 % 1028,3 hPa 0,0 l/m 0,0 km/h (0 Bft) N-NO 22 0 min -6,5 C -5,6 C 0,0 km/h (0 Bft)
20.03.2021 02:20 -3,7 C 4,5 C -4,2 C -4,3 C -5,6 C 0,0 C 81 % 90 % 1028,3 hPa 0,0 l/m 0,0 km/h (0 Bft) NW 315 0 min -6,5 C -5,6 C 0,0 km/h (0 Bft)
20.03.2021 02:25 -3,8 C 4,5 C -4,3 C -4,4 C -5,7 C 0,0 C 81 % 90 % 1028,3 hPa 0,0 l/m 0,0 km/h (0 Bft) O-SO 112 0 min -6,6 C -5,7 C 0,0 km/h (0 Bft)
20.03.2021 02:30 -3,7 C 4,5 C -4,3 C -4,4 C -5,7 C 0,0 C 81 % 90 % 1028,3 hPa 0,0 l/m 0,0 km/h (0 Bft) O-NO 67 0 min -6,5 C -5,7 C 0,0 km/h (0 Bft)
20.03.2021 02:35 -3,9 C 4,5 C -4,3 C -4,5 C -5,8 C 0,0 C 81 % 90 % 1028,3 hPa 0,0 l/m 0,0 km/h (0 Bft) NW 315 0 min -6,7 C -5,8 C 0,0 km/h (0 Bft)
20.03.2021 02:40 -3,9 C 4,5 C -4,4 C -4,6 C -5,9 C 0,0 C 81 % 90 % 1028,3 hPa 0,0 l/m 0,0 km/h (0 Bft) N-NO 22 0 min -6,7 C -5,9 C 0,0 km/h (0 Bft)
20.03.2021 02:45 -3,9 C 4,5 C -4,5 C -4,6 C -5,9 C 0,0 C 82 % 90 % 1028,3 hPa 0,0 l/m 0,0 km/h (0 Bft) N-NO 22 0 min -6,5 C -5,9 C 0,0 km/h (0 Bft)
20.03.2021 02:50 -4,0 C 4,6 C -4,5 C -4,6 C -5,9 C 0,0 C 82 % 90 % 1028,4 hPa 0,0 l/m 0,0 km/h (0 Bft) NO 45 0 min -6,6 C -5,9 C 0,0 km/h (0 Bft)
20.03.2021 02:55 -3,9 C 4,6 C -4,5 C -4,6 C -5,9 C 0,0 C 82 % 90 % 1028,4 hPa 0,0 l/m 0,0 km/h (0 Bft) O-NO 67 0 min -6,5 C -5,9 C 0,0 km/h (0 Bft)
20.03.2021 03:00 -4,1 C 4,6 C -4,6 C -4,7 C -6,0 C 0,0 C 82 % 90 % 1028,4 hPa 0,0 l/m 0,0 km/h (0 Bft) N-NO 22 0 min -6,7 C -6,0 C 0,0 km/h (0 Bft)
20.03.2021 03:05 -4,1 C 4,6 C -4,6 C -4,7 C -6,0 C 0,0 C 82 % 90 % 1028,4 hPa 0,0 l/m 0,0 km/h (0 Bft) NO 45 0 min -6,7 C -6,0 C 0,0 km/h (0 Bft)
20.03.2021 03:10 -4,1 C 4,6 C -4,5 C -4,8 C -6,1 C 0,0 C 82 % 91 % 1028,3 hPa 0,0 l/m 0,0 km/h (0 Bft) NO 45 0 min -6,7 C -6,1 C 0,0 km/h (0 Bft)
20.03.2021 03:15 -4,1 C 4,6 C -4,5 C -4,8 C -6,1 C 0,0 C 82 % 91 % 1028,3 hPa 0,0 l/m 0,0 km/h (0 Bft) NO 45 0 min -6,7 C -6,1 C 0,0 km/h (0 Bft)
20.03.2021 03:20 -4,1 C 4,6 C -4,6 C -4,8 C -6,2 C 0,0 C 83 % 91 % 1028,3 hPa 0,0 l/m 0,0 km/h (0 Bft) NO 45 0 min -6,5 C -6,2 C 0,0 km/h (0 Bft)
20.03.2021 03:25 -4,3 C 4,6 C -4,6 C -4,9 C -6,1 C 0,0 C 83 % 91 % 1028,3 hPa 0,0 l/m 0,0 km/h (0 Bft) NO 45 0 min -6,7 C -6,1 C 0,0 km/h (0 Bft)
20.03.2021 03:30 -4,1 C 4,6 C -4,6 C -4,7 C -6,0 C 0,0 C 83 % 91 % 1028,3 hPa 0,0 l/m 0,0 km/h (0 Bft) N-NW 337 0 min -6,5 C -6,0 C 0,0 km/h (0 Bft)
20.03.2021 03:35 -4,3 C 4,4 C -4,6 C -4,9 C -6,0 C 0,0 C 83 % 91 % 1028,3 hPa 0,0 l/m 0,0 km/h (0 Bft) NO 45 0 min -6,7 C -6,0 C 0,0 km/h (0 Bft)
20.03.2021 03:40 -4,3 C 4,4 C -4,6 C -4,8 C -5,9 C 0,0 C 83 % 91 % 1028,3 hPa 0,0 l/m 0,0 km/h (0 Bft) NO 45 0 min -6,7 C -5,9 C 0,0 km/h (0 Bft)
20.03.2021 03:45 -4,3 C 4,4 C -4,5 C -4,8 C -5,8 C 0,0 C 83 % 91 % 1028,3 hPa 0,0 l/m 0,0 km/h (0 Bft) NO 45 0 min -6,7 C -5,8 C 0,0 km/h (0 Bft)
20.03.2021 03:50 -4,3 C 4,4 C -4,6 C -4,8 C -5,8 C 0,0 C 83 % 91 % 1028,4 hPa 0,0 l/m 0,0 km/h (0 Bft) NO 45 0 min -6,7 C -5,8 C 0,0 km/h (0 Bft)
20.03.2021 03:55 -4,3 C 4,4 C -4,6 C -4,8 C -5,9 C 0,0 C 83 % 91 % 1028,4 hPa 0,0 l/m 0,0 km/h (0 Bft) NO 45 0 min -6,7 C -5,9 C 0,0 km/h (0 Bft)
20.03.2021 04:00 -4,4 C 4,4 C -4,7 C -4,9 C -6,0 C 0,0 C 83 % 91 % 1028,4 hPa 0,0 l/m 0,0 km/h (0 Bft) NO 45 0 min -6,8 C -6,0 C 0,0 km/h (0 Bft)
20.03.2021 04:05 -4,5 C 4,4 C -4,7 C -5,1 C -6,2 C 0,0 C 83 % 91 % 1028,4 hPa 0,0 l/m 0,0 km/h (0 Bft) NO 45 0 min -6,9 C -6,2 C 0,0 km/h (0 Bft)
20.03.2021 04:10 -4,5 C 4,4 C -4,8 C -5,1 C -6,4 C 0,0 C 83 % 91 % 1028,4 hPa 0,0 l/m 0,0 km/h (0 Bft) NO 45 0 min -6,9 C -6,4 C 0,0 km/h (0 Bft)
20.03.2021 04:15 -4,5 C 4,4 C -4,9 C -5,2 C -6,5 C 0,0 C 83 % 91 % 1028,4 hPa 0,0 l/m 0,0 km/h (0 Bft) NO 45 0 min -6,9 C -6,5 C 0,0 km/h (0 Bft)
20.03.2021 04:20 -4,7 C 4,4 C -4,9 C -5,4 C -6,7 C 0,0 C 83 % 91 % 1028,4 hPa 0,0 l/m 0,0 km/h (0 Bft) NO 45 0 min -7,1 C -6,7 C 0,0 km/h (0 Bft)
20.03.2021 04:25 -4,8 C 4,4 C -5,0 C -5,5 C -6,9 C 0,0 C 83 % 91 % 1028,4 hPa 0,0 l/m 0,0 km/h (0 Bft) NO 45 0 min -7,2 C -6,9 C 0,0 km/h (0 Bft)
20.03.2021 04:30 -4,9 C 4,4 C -5,0 C -5,6 C -7,1 C 0,0 C 83 % 91 % 1028,4 hPa 0,0 l/m 0,0 km/h (0 Bft) NO 45 0 min -7,3 C -7,1 C 0,0 km/h (0 Bft)
20.03.2021 04:35 -4,9 C 4,4 C -5,0 C -5,6 C -7,1 C 0,0 C 83 % 91 % 1028,4 hPa 0,0 l/m 0,0 km/h (0 Bft) NO 45 0 min -7,3 C -7,1 C 0,0 km/h (0 Bft)
20.03.2021 04:40 -4,9 C 4,4 C -5,1 C -5,6 C -7,1 C 0,0 C 83 % 91 % 1028,4 hPa 0,0 l/m 0,0 km/h (0 Bft) NO 45 0 min -7,3 C -7,1 C 0,0 km/h (0 Bft)
20.03.2021 04:45 -4,9 C 4,4 C -5,1 C -5,6 C -7,1 C 0,0 C 84 % 91 % 1028,4 hPa 0,0 l/m 0,0 km/h (0 Bft) NO 45 0 min -7,2 C -7,1 C 0,0 km/h (0 Bft)
20.03.2021 04:50 -5,1 C 4,4 C -5,3 C -5,8 C -7,1 C 0,0 C 84 % 91 % 1028,6 hPa 0,0 l/m 0,0 km/h (0 Bft) NO 45 0 min -7,4 C -7,1 C 0,0 km/h (0 Bft)
20.03.2021 04:55 -5,2 C 4,4 C -5,3 C -5,8 C -7,0 C 0,0 C 84 % 91 % 1028,6 hPa 0,0 l/m 0,0 km/h (0 Bft) NO 45 0 min -7,5 C -7,0 C 0,0 km/h (0 Bft)
20.03.2021 05:00 -5,3 C 4,4 C -5,3 C -5,9 C -7,1 C 0,0 C 84 % 91 % 1028,6 hPa 0,0 l/m 0,0 km/h (0 Bft) NO 45 0 min -7,6 C -7,1 C 0,0 km/h (0 Bft)
20.03.2021 05:05 -5,3 C 4,4 C -5,3 C -5,9 C -7,1 C 0,0 C 84 % 91 % 1028,6 hPa 0,0 l/m 0,0 km/h (0 Bft) NO 45 0 min -7,6 C -7,1 C 0,0 km/h (0 Bft)
20.03.2021 05:10 -5,3 C 4,4 C -5,4 C -5,9 C -7,2 C 0,0 C 84 % 91 % 1028,5 hPa 0,0 l/m 0,0 km/h (0 Bft) NO 45 0 min -7,6 C -7,2 C 0,0 km/h (0 Bft)
20.03.2021 05:15 -5,5 C 4,4 C -5,4 C -6,1 C -7,3 C 0,0 C 84 % 91 % 1028,5 hPa 0,0 l/m 0,0 km/h (0 Bft) NO 45 0 min -7,8 C -7,3 C 0,0 km/h (0 Bft)
20.03.2021 05:20 -5,6 C 4,4 C -5,4 C -6,2 C -7,3 C 0,0 C 84 % 91 % 1028,5 hPa 0,0 l/m 0,0 km/h (0 Bft) NO 45 0 min -7,9 C -7,3 C 0,0 km/h (0 Bft)
20.03.2021 05:25 -5,6 C 4,3 C -5,4 C -6,2 C -7,3 C 0,0 C 84 % 91 % 1028,5 hPa 0,0 l/m 0,0 km/h (0 Bft) NO 45 0 min -7,9 C -7,3 C 0,0 km/h (0 Bft)
20.03.2021 05:30 -5,7 C 4,3 C -5,5 C -6,3 C -7,4 C 0,0 C 84 % 91 % 1028,6 hPa 0,0 l/m 0,0 km/h (0 Bft) NO 45 0 min -8,0 C -7,4 C 0,0 km/h (0 Bft)
20.03.2021 05:35 -5,7 C 4,3 C -5,6 C -6,3 C -7,5 C 0,0 C 84 % 92 % 1028,6 hPa 0,0 l/m 0,0 km/h (0 Bft) NO 45 0 min -8,0 C -7,5 C 0,0 km/h (0 Bft)
20.03.2021 05:40 -5,7 C 4,3 C -5,7 C -6,3 C -7,6 C 0,0 C 84 % 92 % 1028,6 hPa 0,0 l/m 0,0 km/h (0 Bft) NO 45 0 min -8,0 C -7,6 C 0,0 km/h (0 Bft)
20.03.2021 05:45 -5,7 C 4,3 C -5,7 C -6,3 C -7,6 C 0,0 C 84 % 92 % 1028,6 hPa 0,0 l/m 0,0 km/h (0 Bft) NO 45 0 min -8,0 C -7,6 C 0,0 km/h (0 Bft)
20.03.2021 05:50 -5,9 C 4,3 C -5,7 C -6,5 C -7,7 C 0,0 C 84 % 92 % 1029,1 hPa 0,0 l/m 0,0 km/h (0 Bft) NO 45 0 min -8,2 C -7,7 C 0,0 km/h (0 Bft)
20.03.2021 05:55 -5,9 C 4,3 C -5,7 C -6,5 C -7,7 C 0,0 C 84 % 92 % 1029,1 hPa 0,0 l/m 0,0 km/h (0 Bft) NO 45 0 min -8,2 C -7,7 C 0,0 km/h (0 Bft)
20.03.2021 06:00 -6,0 C 4,3 C -5,7 C -6,6 C -7,8 C 0,0 C 84 % 92 % 1029,1 hPa 0,0 l/m 0,0 km/h (0 Bft) NO 45 0 min -8,3 C -7,8 C 0,0 km/h (0 Bft)
20.03.2021 06:05 -5,9 C 4,3 C -5,7 C -6,5 C -7,8 C 0,0 C 84 % 92 % 1029,1 hPa 0,0 l/m 0,0 km/h (0 Bft) NO 45 0 min -8,2 C -7,8 C 0,0 km/h (0 Bft)
20.03.2021 06:10 -6,1 C 4,3 C -5,7 C -6,6 C -7,7 C 0,0 C 84 % 92 % 1029,1 hPa 0,0 l/m 0,0 km/h (0 Bft) NO 45 0 min -8,4 C -7,7 C 0,0 km/h (0 Bft)
20.03.2021 06:15 -6,0 C 4,3 C -5,7 C -6,5 C -7,6 C 0,0 C 84 % 92 % 1029,1 hPa 0,0 l/m 0,0 km/h (0 Bft) NW 315 0 min -8,3 C -7,6 C 0,0 km/h (0 Bft)
20.03.2021 06:20 -6,0 C 4,3 C -5,6 C -6,5 C -7,4 C 0,0 C 85 % 92 % 1029,1 hPa 0,0 l/m 0,0 km/h (0 Bft) NW 315 0 min -8,1 C -7,4 C 0,0 km/h (0 Bft)
20.03.2021 06:25 -6,0 C 4,3 C -5,6 C -6,4 C -7,3 C 0,0 C 85 % 92 % 1029,1 hPa 0,0 l/m 0,0 km/h (0 Bft) NW 315 0 min -8,1 C -7,3 C 0,0 km/h (0 Bft)
20.03.2021 06:30 -5,9 C 4,3 C -5,6 C -6,3 C -7,2 C 0,0 C 85 % 92 % 1028,9 hPa 0,0 l/m 0,0 km/h (0 Bft) NW 315 0 min -8,0 C -7,2 C 0,0 km/h (0 Bft)
20.03.2021 06:35 -5,7 C 4,3 C -5,7 C -6,2 C -7,1 C 0,0 C 85 % 92 % 1028,9 hPa 0,0 l/m 0,0 km/h (0 Bft) NW 315 0 min -7,8 C -7,1 C 0,0 km/h (0 Bft)
20.03.2021 06:40 -5,8 C 4,3 C -5,5 C -6,0 C -6,4 C 0,0 C 85 % 92 % 1028,9 hPa 0,0 l/m 0,0 km/h (0 Bft) NW 315 0 min -7,9 C -6,4 C 0,0 km/h (0 Bft)
20.03.2021 06:45 -5,6 C 4,3 C -5,4 C -5,1 C -5,1 C 0,5 C 86 % 92 % 1028,9 hPa 0,0 l/m 0,0 km/h (0 Bft) O-NO 67 0 min -7,6 C -5,1 C 0,0 km/h (0 Bft)
20.03.2021 06:50 -5,2 C 4,3 C -5,1 C -4,0 C -4,0 C 1,2 C 86 % 92 % 1028,9 hPa 0,0 l/m 0,0 km/h (0 Bft) O-NO 67 5 min -7,2 C -4,0 C 0,0 km/h (0 Bft)
20.03.2021 06:55 -4,9 C 4,3 C -4,9 C -3,3 C -3,3 C 1,6 C 86 % 92 % 1028,9 hPa 0,0 l/m 0,0 km/h (0 Bft) O-NO 67 5 min -6,9 C -3,3 C 0,0 km/h (0 Bft)
20.03.2021 07:00 -4,5 C 4,3 C -4,7 C -2,4 C -2,4 C 2,1 C 87 % 92 % 1028,9 hPa 0,0 l/m 0,0 km/h (0 Bft) N-NO 22 5 min -6,3 C -2,4 C 0,0 km/h (0 Bft)
20.03.2021 07:05 -4,1 C 4,2 C -4,5 C -1,5 C -1,5 C 2,6 C 87 % 92 % 1028,9 hPa 0,0 l/m 0,0 km/h (0 Bft) NW 315 5 min -5,9 C -1,5 C 0,0 km/h (0 Bft)
20.03.2021 07:10 -3,5 C 4,2 C -4,1 C -0,3 C -0,3 C 3,2 C 87 % 92 % 1029,5 hPa 0,0 l/m 0,0 km/h (0 Bft) NW 315 5 min -5,3 C -0,3 C 0,0 km/h (0 Bft)
20.03.2021 07:15 -3,5 C 4,2 C -4,1 C 0,8 C 0,8 C 4,3 C 87 % 92 % 1029,5 hPa 0,0 l/m 0,0 km/h (0 Bft) W 270 5 min -5,3 C 0,8 C 0,0 km/h (0 Bft)
20.03.2021 07:20 -3,1 C 4,2 C -3,9 C 2,0 C 2,0 C 5,1 C 87 % 91 % 1029,5 hPa 0,0 l/m 0,0 km/h (0 Bft) NW 315 5 min -4,9 C 2,0 C 0,0 km/h (0 Bft)
20.03.2021 07:25 -3,1 C 4,2 C -4,1 C 2,4 C 2,4 C 5,5 C 87 % 91 % 1029,5 hPa 0,0 l/m 0,0 km/h (0 Bft) NW 315 5 min -4,9 C 2,4 C 0,0 km/h (0 Bft)
20.03.2021 07:30 -2,7 C 4,2 C -3,9 C 3,1 C 3,1 C 5,8 C 87 % 91 % 1029,6 hPa 0,0 l/m 0,0 km/h (0 Bft) NO 45 5 min -4,6 C 3,1 C 0,0 km/h (0 Bft)
20.03.2021 07:35 -2,7 C 4,2 C -3,7 C 2,8 C 2,8 C 5,5 C 87 % 92 % 1029,6 hPa 0,0 l/m 0,0 km/h (0 Bft) NO 45 5 min -4,6 C 2,8 C 0,0 km/h (0 Bft)
20.03.2021 07:40 -2,5 C 4,2 C -3,7 C 2,7 C 2,7 C 5,2 C 87 % 91 % 1029,6 hPa 0,0 l/m 0,0 km/h (0 Bft) NO 45 5 min -4,4 C 2,7 C 0,0 km/h (0 Bft)
20.03.2021 07:45 -2,4 C 4,0 C -3,6 C 2,4 C 2,4 C 4,8 C 87 % 91 % 1029,6 hPa 0,0 l/m 0,0 km/h (0 Bft) O-NO 67 5 min -4,3 C 2,4 C 0,0 km/h (0 Bft)
20.03.2021 07:50 -2,3 C 4,0 C -3,6 C 1,8 C 1,8 C 4,1 C 87 % 91 % 1029,8 hPa 0,0 l/m 0,0 km/h (0 Bft) NO 45 5 min -4,2 C 1,8 C 0,0 km/h (0 Bft)
20.03.2021 07:55 -2,5 C 4,0 C -3,6 C 1,8 C 1,8 C 4,3 C 86 % 91 % 1029,8 hPa 0,0 l/m 0,0 km/h (0 Bft) NO 45 5 min -4,5 C 1,8 C 0,0 km/h (0 Bft)
20.03.2021 08:00 -2,5 C 4,0 C -3,7 C 1,5 C 1,5 C 4,0 C 86 % 90 % 1029,8 hPa 0,0 l/m 0,0 km/h (0 Bft) O-NO 67 5 min -4,5 C 1,5 C 0,0 km/h (0 Bft)
20.03.2021 08:05 -2,5 C 4,0 C -3,6 C 1,6 C 1,6 C 4,1 C 85 % 90 % 1029,8 hPa 0,0 l/m 0,0 km/h (0 Bft) O-NO 67 5 min -4,7 C 1,6 C 0,0 km/h (0 Bft)
20.03.2021 08:10 -2,6 C 4,0 C -3,3 C 2,1 C 2,1 C 4,7 C 85 % 90 % 1029,8 hPa 0,0 l/m 0,0 km/h (0 Bft) O-NO 67 5 min -4,8 C 2,1 C 0,0 km/h (0 Bft)
20.03.2021 08:15 -2,5 C 4,0 C -3,3 C 1,6 C 1,6 C 4,1 C 85 % 90 % 1029,8 hPa 0,0 l/m 0,0 km/h (0 Bft) NO 45 5 min -4,7 C 1,6 C 0,0 km/h (0 Bft)
20.03.2021 08:20 -2,5 C 4,0 C -3,0 C 1,8 C 1,8 C 4,3 C 85 % 90 % 1029,8 hPa 0,0 l/m 0,0 km/h (0 Bft) NO 45 5 min -4,7 C 1,8 C 0,0 km/h (0 Bft)
20.03.2021 08:25 -2,5 C 4,0 C -2,8 C 2,6 C 2,6 C 5,1 C 85 % 91 % 1029,8 hPa 0,0 l/m 0,0 km/h (0 Bft) NO 45 5 min -4,7 C 2,6 C 0,0 km/h (0 Bft)
20.03.2021 08:30 -2,5 C 4,0 C -2,7 C 4,1 C 4,1 C 6,6 C 84 % 90 % 1029,8 hPa 0,0 l/m 0,2 km/h (0 Bft) O-SO 112 5 min -4,8 C 4,1 C 0,0 km/h (0 Bft)
20.03.2021 08:35 -2,5 C 4,0 C -2,4 C 5,2 C 5,2 C 7,7 C 84 % 90 % 1029,8 hPa 0,0 l/m 0,2 km/h (0 Bft) O-NO 67 5 min -4,8 C 5,2 C 0,0 km/h (0 Bft)
20.03.2021 08:40 -2,5 C 4,0 C -2,3 C 5,9 C 5,9 C 8,4 C 84 % 89 % 1029,8 hPa 0,0 l/m 0,0 km/h (0 Bft) O 90 5 min -4,8 C 5,9 C 0,0 km/h (0 Bft)
20.03.2021 08:45 -2,4 C 4,0 C -2,2 C 6,8 C 6,8 C 9,2 C 84 % 89 % 1029,8 hPa 0,0 l/m 0,2 km/h (0 Bft) O-NO 67 5 min -4,7 C 6,8 C 3,1 km/h (1 Bft)
20.03.2021 08:50 -2,4 C 3,9 C -1,7 C 5,0 C 5,0 C 7,4 C 83 % 89 % 1029,8 hPa 0,0 l/m 0,3 km/h (0 Bft) O-NO 67 5 min -4,9 C 5,0 C 0,0 km/h (0 Bft)
20.03.2021 08:55 -2,3 C 3,9 C -1,2 C 3,6 C 3,6 C 5,9 C 83 % 89 % 1029,8 hPa 0,0 l/m 0,3 km/h (0 Bft) O-SO 112 5 min -4,8 C 3,6 C 0,0 km/h (0 Bft)
20.03.2021 09:00 -2,0 C 3,9 C -0,5 C 4,7 C 4,7 C 6,7 C 83 % 88 % 1029,8 hPa 0,0 l/m 0,0 km/h (0 Bft) S-SW 202 5 min -4,5 C 4,7 C 0,0 km/h (0 Bft)
20.03.2021 09:05 -2,1 C 3,9 C -0,3 C 5,2 C 5,2 C 7,3 C 83 % 88 % 1029,8 hPa 0,0 l/m 0,0 km/h (0 Bft) SW 225 5 min -4,6 C 5,2 C 0,0 km/h (0 Bft)
20.03.2021 09:10 -2,0 C 3,9 C -0,4 C 5,6 C 5,6 C 7,6 C 82 % 86 % 1029,9 hPa 0,0 l/m 0,2 km/h (0 Bft) S 180 5 min -4,7 C 5,6 C 0,0 km/h (0 Bft)
20.03.2021 09:15 -2,1 C 3,9 C -0,2 C 5,1 C 5,1 C 7,2 C 82 % 86 % 1029,9 hPa 0,0 l/m 0,2 km/h (0 Bft) SO 135 5 min -4,7 C 5,1 C 0,0 km/h (0 Bft)
20.03.2021 09:20 -1,9 C 3,9 C 0,2 C 5,4 C 5,4 C 7,3 C 82 % 85 % 1029,9 hPa 0,0 l/m 0,5 km/h (0 Bft) O-NO 67 5 min -4,6 C 5,4 C 4,3 km/h (1 Bft)
20.03.2021 09:25 -1,7 C 3,9 C 0,5 C 5,6 C 5,6 C 7,3 C 81 % 84 % 1029,9 hPa 0,0 l/m 0,8 km/h (0 Bft) O-NO 67 5 min -4,5 C 5,6 C 0,0 km/h (0 Bft)
20.03.2021 09:30 -1,5 C 3,8 C 1,2 C 5,4 C 5,4 C 6,9 C 81 % 83 % 1029,8 hPa 0,0 l/m 0,5 km/h (0 Bft) NO 45 5 min -4,3 C 5,4 C 0,0 km/h (0 Bft)
20.03.2021 09:35 -1,3 C 3,8 C 1,8 C 4,5 C 4,5 C 5,8 C 81 % 83 % 1029,8 hPa 0,0 l/m 0,0 km/h (0 Bft) NW 315 5 min -4,1 C 4,5 C 0,0 km/h (0 Bft)
20.03.2021 09:40 -1,2 C 3,8 C 2,8 C 5,4 C 5,4 C 6,6 C 79 % 81 % 1029,8 hPa 0,0 l/m 0,2 km/h (0 Bft) O-NO 67 5 min -4,4 C 5,4 C 0,0 km/h (0 Bft)
20.03.2021 09:45 -0,9 C 3,8 C 3,7 C 6,1 C 6,1 C 7,0 C 79 % 82 % 1029,8 hPa 0,0 l/m 0,2 km/h (0 Bft) S-SW 202 5 min -4,1 C 6,1 C 0,0 km/h (0 Bft)
20.03.2021 09:50 -0,8 C 3,8 C 4,0 C 7,2 C 7,2 C 8,0 C 78 % 80 % 1030,4 hPa 0,0 l/m 0,2 km/h (0 Bft) S-SO 157 5 min -4,1 C 7,2 C 0,0 km/h (0 Bft)
20.03.2021 09:55 -0,5 C 3,8 C 3,7 C 6,2 C 6,2 C 6,7 C 79 % 79 % 1030,4 hPa 0,0 l/m 0,0 km/h (0 Bft) NO 45 5 min -3,7 C 6,2 C 0,0 km/h (0 Bft)
20.03.2021 10:00 -0,3 C 3,8 C 3,3 C 5,8 C 5,8 C 6,1 C 77 % 79 % 1030,4 hPa 0,0 l/m 0,0 km/h (0 Bft) W 270 5 min -3,8 C 5,8 C 0,0 km/h (0 Bft)
20.03.2021 10:05 -0,5 C 3,8 C 2,9 C 5,8 C 5,8 C 6,3 C 76 % 77 % 1030,4 hPa 0,0 l/m 0,3 km/h (0 Bft) NW 315 5 min -4,2 C 5,8 C 0,0 km/h (0 Bft)
20.03.2021 10:10 -0,7 C 3,8 C 1,9 C 5,3 C 5,3 C 6,0 C 75 % 79 % 1030,4 hPa 0,0 l/m 0,3 km/h (0 Bft) SW 225 5 min -4,6 C 5,3 C 0,0 km/h (0 Bft)
20.03.2021 10:15 -0,7 C 3,8 C 1,9 C 5,7 C 5,7 C 6,4 C 75 % 79 % 1030,4 hPa 0,0 l/m 0,2 km/h (0 Bft) W-SW 247 5 min -4,6 C 5,7 C 0,0 km/h (0 Bft)
20.03.2021 10:20 -0,5 C 3,7 C 1,7 C 5,4 C 5,4 C 5,9 C 75 % 79 % 1030,4 hPa 0,0 l/m 0,6 km/h (0 Bft) W 270 5 min -4,4 C 5,4 C 7,2 km/h (2 Bft)
20.03.2021 10:25 -0,5 C 3,7 C 1,8 C 4,5 C 4,5 C 5,0 C 74 % 80 % 1030,4 hPa 0,0 l/m 1,0 km/h (0 Bft) W-NW 292 5 min -4,5 C 4,5 C 1,6 km/h (1 Bft)
20.03.2021 10:30 -0,4 C 3,8 C 1,8 C 4,3 C 4,3 C 4,7 C 74 % 76 % 1030,1 hPa 0,0 l/m 1,1 km/h (1 Bft) O-NO 67 5 min -4,5 C 4,3 C 4,5 km/h (1 Bft)
20.03.2021 10:35 -0,5 C 3,8 C 1,5 C 4,0 C 4,0 C 4,5 C 72 % 77 % 1030,1 hPa 0,0 l/m 1,0 km/h (0 Bft) O 90 5 min -4,9 C 4,0 C 0,0 km/h (0 Bft)
20.03.2021 10:40 -0,4 C 3,7 C 1,5 C 4,0 C 4,0 C 4,4 C 72 % 77 % 1030,1 hPa 0,0 l/m 1,0 km/h (0 Bft) W-SW 247 5 min -4,8 C 4,0 C 0,0 km/h (0 Bft)
20.03.2021 10:45 -0,3 C 3,7 C 1,7 C 4,1 C 4,1 C 4,4 C 72 % 79 % 1030,1 hPa 0,0 l/m 0,3 km/h (0 Bft) S 180 5 min -4,7 C 4,1 C 0,0 km/h (0 Bft)
20.03.2021 10:50 -0,3 C 3,7 C 1,6 C 4,5 C 4,5 C 4,8 C 72 % 79 % 1030,1 hPa 0,0 l/m 0,6 km/h (0 Bft) W-SW 247 5 min -4,7 C 4,5 C 0,0 km/h (0 Bft)
20.03.2021 10:55 -0,4 C 3,7 C 1,4 C 3,6 C 3,6 C 4,0 C 71 % 79 % 1030,1 hPa 0,0 l/m 1,9 km/h (1 Bft) SW 225 5 min -5,0 C 3,6 C 2,7 km/h (1 Bft)
20.03.2021 11:00 -0,6 C 3,6 C 1,3 C 2,6 C 2,6 C 3,2 C 71 % 80 % 1030,1 hPa 0,0 l/m 1,9 km/h (1 Bft) SW 225 0 min -5,2 C 2,6 C 9,8 km/h (2 Bft)
20.03.2021 11:05 -0,5 C 3,6 C 1,4 C 2,6 C 2,6 C 3,1 C 71 % 79 % 1030,1 hPa 0,0 l/m 1,8 km/h (1 Bft) SW 225 0 min -5,1 C 2,6 C 6,0 km/h (2 Bft)
20.03.2021 11:10 -0,5 C 3,6 C 1,8 C 2,6 C 2,6 C 3,1 C 72 % 80 % 1030,5 hPa 0,0 l/m 2,1 km/h (1 Bft) S-SW 202 0 min -4,9 C 2,6 C 2,9 km/h (1 Bft)
20.03.2021 11:15 -0,3 C 3,6 C 2,0 C 3,2 C 3,2 C 3,5 C 71 % 79 % 1030,5 hPa 0,0 l/m 2,3 km/h (1 Bft) SW 225 5 min -4,9 C 3,2 C 4,0 km/h (1 Bft)
20.03.2021 11:20 -0,5 C 3,6 C 1,9 C 3,2 C 3,2 C 3,7 C 70 % 78 % 1030,5 hPa 0,0 l/m 2,1 km/h (1 Bft) S-SW 202 5 min -5,3 C 3,2 C 2,3 km/h (1 Bft)
20.03.2021 11:25 -0,5 C 3,6 C 1,5 C 2,8 C 2,8 C 3,3 C 70 % 77 % 1030,5 hPa 0,0 l/m 2,3 km/h (1 Bft) W-SW 247 5 min -5,3 C 2,8 C 5,8 km/h (2 Bft)
20.03.2021 11:30 -0,5 C 3,6 C 1,2 C 2,3 C 2,3 C 2,8 C 70 % 78 % 1030,5 hPa 0,0 l/m 1,3 km/h (1 Bft) W-SW 247 0 min -5,3 C 2,3 C 4,5 km/h (1 Bft)
20.03.2021 11:35 -0,5 C 3,6 C 1,2 C 2,1 C 2,1 C 2,6 C 69 % 77 % 1030,5 hPa 0,0 l/m 0,8 km/h (0 Bft) NW 315 0 min -5,5 C 2,1 C 4,2 km/h (1 Bft)
20.03.2021 11:40 -0,5 C 3,6 C 1,1 C 1,9 C 1,9 C 2,4 C 69 % 77 % 1030,5 hPa 0,0 l/m 1,1 km/h (1 Bft) S-SW 202 0 min -5,5 C 1,9 C 0,0 km/h (0 Bft)
20.03.2021 11:45 -0,5 C 3,6 C 1,9 C 2,6 C 2,6 C 3,1 C 69 % 79 % 1030,5 hPa 0,0 l/m 0,6 km/h (0 Bft) W-SW 247 0 min -5,5 C 2,6 C 0,0 km/h (0 Bft)
20.03.2021 11:50 -0,1 C 3,6 C 3,3 C 4,2 C 4,2 C 4,3 C 70 % 78 % 1030,5 hPa 0,0 l/m 0,5 km/h (0 Bft) W-SW 247 5 min -4,9 C 4,2 C 0,0 km/h (0 Bft)
20.03.2021 11:55 0,0 C 3,6 C 4,1 C 6,3 C 6,3 C 6,3 C 70 % 76 % 1030,5 hPa 0,0 l/m 0,6 km/h (0 Bft) W-SW 247 5 min -4,8 C 6,3 C 2,7 km/h (1 Bft)
20.03.2021 12:00 0,3 C 3,6 C 3,9 C 6,8 C 6,8 C 6,5 C 69 % 73 % 1030,5 hPa 0,0 l/m 1,8 km/h (1 Bft) SW 225 5 min -4,7 C 6,8 C 5,1 km/h (1 Bft)
20.03.2021 12:05 0,1 C 3,6 C 3,2 C 5,7 C 5,7 C 5,6 C 68 % 72 % 1030,5 hPa 0,0 l/m 3,2 km/h (1 Bft) SW 225 5 min -5,1 C 5,7 C 2,7 km/h (1 Bft)
20.03.2021 12:10 0,1 C 3,6 C 3,2 C 5,7 C 5,7 C 5,6 C 68 % 72 % 1030,4 hPa 0,0 l/m 3,2 km/h (1 Bft) SW 225 5 min -5,1 C 5,7 C 2,7 km/h (1 Bft)
20.03.2021 12:15 0,1 C 3,6 C 3,2 C 5,7 C 5,7 C 5,6 C 68 % 72 % 1030,4 hPa 0,0 l/m 3,2 km/h (1 Bft) SW 225 5 min -5,1 C 5,7 C 2,7 km/h (1 Bft)
20.03.2021 12:20 -0,2 C 3,5 C 2,3 C 3,4 C 3,4 C 3,6 C 67 % 72 % 1030,4 hPa 0,0 l/m 1,3 km/h (1 Bft) S 180 5 min -5,6 C 3,4 C 2,6 km/h (1 Bft)
20.03.2021 12:25 -0,1 C 3,5 C 2,1 C 3,1 C 3,1 C 3,2 C 67 % 72 % 1030,4 hPa 0,0 l/m 2,4 km/h (1 Bft) S-SW 202 0 min -5,5 C 3,1 C 4,5 km/h (1 Bft)
20.03.2021 12:30 -0,1 C 3,5 C 1,8 C 2,1 C 2,1 C 2,2 C 67 % 72 % 1030,5 hPa 0,0 l/m 3,5 km/h (1 Bft) W 270 0 min -5,5 C 2,1 C 12,1 km/h (2 Bft)
20.03.2021 12:35 -0,1 C 3,5 C 1,7 C 1,8 C 1,8 C 1,9 C 68 % 72 % 1030,5 hPa 0,0 l/m 3,5 km/h (1 Bft) S-SW 202 0 min -5,3 C 1,8 C 5,5 km/h (1 Bft)
20.03.2021 12:40 -0,1 C 3,5 C 2,1 C 2,8 C 2,8 C 2,9 C 68 % 72 % 1030,5 hPa 0,0 l/m 2,3 km/h (1 Bft) W-SW 247 0 min -5,3 C 2,8 C 5,1 km/h (1 Bft)
20.03.2021 12:45 0,1 C 3,5 C 2,4 C 3,5 C 3,5 C 3,4 C 68 % 73 % 1030,5 hPa 0,0 l/m 1,6 km/h (1 Bft) S 180 5 min -5,1 C 3,5 C 0,0 km/h (0 Bft)
20.03.2021 12:50 0,4 C 3,5 C 2,7 C 4,7 C 4,7 C 4,3 C 68 % 72 % 1029,9 hPa 0,0 l/m 1,9 km/h (1 Bft) W-SW 247 5 min -4,8 C 4,7 C 4,3 km/h (1 Bft)
20.03.2021 12:55 0,3 C 3,5 C 2,6 C 4,4 C 4,4 C 4,1 C 67 % 71 % 1029,9 hPa 0,0 l/m 3,1 km/h (1 Bft) W-SW 247 5 min -5,1 C 4,4 C 3,5 km/h (1 Bft)
20.03.2021 13:00 0,2 C 3,5 C 2,2 C 3,3 C 3,3 C 3,1 C 66 % 70 % 1029,9 hPa 0,0 l/m 3,1 km/h (1 Bft) W-SW 247 0 min -5,4 C 3,3 C 2,6 km/h (1 Bft)
20.03.2021 13:05 0,3 C 3,5 C 2,1 C 3,2 C 3,2 C 2,9 C 66 % 71 % 1029,9 hPa 0,0 l/m 1,8 km/h (1 Bft) SW 225 0 min -5,3 C 3,2 C 0,0 km/h (0 Bft)
20.03.2021 13:10 0,2 C 3,5 C 2,2 C 3,1 C 3,1 C 2,9 C 66 % 71 % 1029,6 hPa 0,0 l/m 1,4 km/h (1 Bft) S-SW 202 0 min -5,4 C 3,1 C 4,0 km/h (1 Bft)
20.03.2021 13:15 0,1 C 3,5 C 2,0 C 3,0 C 3,0 C 2,9 C 66 % 70 % 1029,6 hPa 0,0 l/m 2,4 km/h (1 Bft) SW 225 0 min -5,5 C 3,0 C 2,1 km/h (1 Bft)
20.03.2021 13:16 0,0 C 3,5 C 1,9 C 2,1 C 2,1 C 2,1 C 67 % 70 % 1029,6 hPa 0,0 l/m 3,9 km/h (1 Bft) S-SW 202 0 min -5,4 C 2,1 C 2,3 km/h (1 Bft)
20.03.2021 13:18 0,0 C 3,5 C 1,9 C 2,1 C 2,1 C 2,1 C 67 % 70 % 1029,6 hPa 0,0 l/m 3,9 km/h (1 Bft) S-SW 202 0 min -5,4 C 2,1 C 2,3 km/h (1 Bft)
20.03.2021 13:20 0,0 C 3,5 C 1,9 C 2,1 C 2,1 C 2,1 C 67 % 70 % 1029,6 hPa 0,0 l/m 3,9 km/h (1 Bft) S-SW 202 0 min -5,4 C 2,1 C 2,3 km/h (1 Bft)
20.03.2021 13:25 0,3 C 3,5 C 2,1 C 2,9 C 2,9 C 2,6 C 68 % 72 % 1029,6 hPa 0,0 l/m 2,7 km/h (1 Bft) SW 225 0 min -4,9 C 2,9 C 0,0 km/h (0 Bft)
20.03.2021 13:30 0,3 C 3,5 C 2,3 C 3,4 C 3,4 C 3,1 C 68 % 70 % 1029,6 hPa 0,0 l/m 1,1 km/h (1 Bft) S-SW 202 0 min -4,9 C 3,4 C 0,0 km/h (0 Bft)
20.03.2021 13:35 0,5 C 3,5 C 2,3 C 3,9 C 3,9 C 3,4 C 68 % 70 % 1029,6 hPa 0,0 l/m 1,4 km/h (1 Bft) SW 225 5 min -4,7 C 3,9 C 5,3 km/h (1 Bft)
20.03.2021 13:40 0,5 C 3,4 C 2,6 C 4,4 C 4,4 C 3,9 C 68 % 71 % 1029,6 hPa 0,0 l/m 1,3 km/h (1 Bft) S-SW 202 5 min -4,7 C 4,4 C 0,0 km/h (0 Bft)
20.03.2021 13:45 0,7 C 3,4 C 2,8 C 5,3 C 5,3 C 4,6 C 68 % 70 % 1029,6 hPa 0,0 l/m 1,3 km/h (1 Bft) S-SW 202 5 min -4,5 C 5,3 C 5,8 km/h (2 Bft)
20.03.2021 13:50 0,9 C 3,4 C 2,9 C 5,4 C 5,4 C 4,5 C 67 % 69 % 1029,3 hPa 0,0 l/m 2,3 km/h (1 Bft) SW 225 5 min -4,5 C 5,4 C 4,2 km/h (1 Bft)
20.03.2021 13:55 0,7 C 3,4 C 2,8 C 5,0 C 5,0 C 4,3 C 66 % 68 % 1029,3 hPa 0,0 l/m 3,2 km/h (1 Bft) S 180 5 min -4,9 C 5,0 C 3,7 km/h (1 Bft)
20.03.2021 14:00 0,7 C 3,4 C 2,6 C 4,3 C 4,3 C 3,6 C 66 % 68 % 1029,3 hPa 0,0 l/m 2,3 km/h (1 Bft) S-SW 202 5 min -4,9 C 4,3 C 0,0 km/h (0 Bft)
20.03.2021 14:05 0,7 C 3,5 C 2,4 C 4,0 C 4,0 C 3,3 C 66 % 68 % 1029,3 hPa 0,0 l/m 1,8 km/h (1 Bft) W-SW 247 5 min -4,9 C 4,0 C 2,6 km/h (1 Bft)
20.03.2021 14:11 0,6 C 3,5 C 2,3 C 3,3 C 3,3 C 2,7 C 66 % 68 % 1029,3 hPa 0,0 l/m 1,3 km/h (1 Bft) N 0 0 min -5,0 C 3,3 C 2,3 km/h (1 Bft)
20.03.2021 14:15 0,6 C 3,5 C 2,3 C 3,1 C 3,1 C 2,5 C 66 % 68 % 1029,3 hPa 0,0 l/m 1,3 km/h (1 Bft) N 0 0 min -5,0 C 3,1 C 2,7 km/h (1 Bft)
20.03.2021 14:20 0,7 C 3,5 C 2,4 C 3,4 C 3,4 C 2,7 C 66 % 69 % 1029,3 hPa 0,0 l/m 0,8 km/h (0 Bft) N-NW 337 0 min -4,9 C 3,4 C 0,0 km/h (0 Bft)
20.03.2021 14:21 0,8 C 3,5 C 2,4 C 3,9 C 3,9 C 3,1 C 66 % 68 % 1029,3 hPa 0,0 l/m 1,1 km/h (1 Bft) S-SO 157 0 min -4,8 C 3,9 C 3,4 km/h (1 Bft)
20.03.2021 14:26 0,7 C 3,5 C 2,1 C 3,4 C 3,4 C 2,7 C 66 % 68 % 1029,3 hPa 0,0 l/m 1,9 km/h (1 Bft) S 180 0 min -4,9 C 3,4 C 4,8 km/h (1 Bft)
20.03.2021 14:30 0,7 C 3,5 C 2,1 C 3,4 C 3,4 C 2,7 C 66 % 68 % 1029,3 hPa 0,0 l/m 1,9 km/h (1 Bft) S 180 0 min -4,9 C 3,4 C 4,8 km/h (1 Bft)
20.03.2021 14:35 0,7 C 3,5 C 2,0 C 3,0 C 3,0 C 2,3 C 66 % 68 % 1029,3 hPa 0,0 l/m 1,9 km/h (1 Bft) S-SW 202 0 min -4,9 C 3,0 C 0,0 km/h (0 Bft)
20.03.2021 14:40 0,7 C 3,5 C 2,1 C 3,0 C 3,0 C 2,3 C 66 % 68 % 1029,3 hPa 0,0 l/m 2,1 km/h (1 Bft) W-SW 247 0 min -4,9 C 3,0 C 1,8 km/h (1 Bft)
20.03.2021 14:45 0,7 C 3,5 C 2,2 C 3,2 C 3,2 C 2,5 C 66 % 68 % 1029,3 hPa 0,0 l/m 1,6 km/h (1 Bft) S 180 0 min -4,9 C 3,2 C 0,0 km/h (0 Bft)
20.03.2021 14:50 0,8 C 3,5 C 2,1 C 3,4 C 3,4 C 2,6 C 66 % 68 % 1029,3 hPa 0,0 l/m 1,1 km/h (1 Bft) S 180 0 min -4,8 C 3,4 C 0,0 km/h (0 Bft)
20.03.2021 14:55 0,8 C 3,5 C 2,2 C 3,6 C 3,6 C 2,8 C 66 % 68 % 1029,3 hPa 0,0 l/m 1,6 km/h (1 Bft) SW 225 0 min -4,8 C 3,6 C 2,6 km/h (1 Bft)
20.03.2021 15:00 0,9 C 3,5 C 2,2 C 3,9 C 3,9 C 3,0 C 66 % 68 % 1029,3 hPa 0,0 l/m 1,8 km/h (1 Bft) SW 225 0 min -4,7 C 3,9 C 2,9 km/h (1 Bft)
20.03.2021 15:05 0,9 C 3,5 C 2,3 C 3,7 C 3,7 C 2,8 C 66 % 68 % 1029,3 hPa 0,0 l/m 1,6 km/h (1 Bft) W 270 0 min -4,7 C 3,7 C 2,3 km/h (1 Bft)
20.03.2021 15:10 0,9 C 3,5 C 2,2 C 3,3 C 3,3 C 2,4 C 66 % 68 % 1029,3 hPa 0,0 l/m 1,4 km/h (1 Bft) S-SW 202 0 min -4,7 C 3,3 C 0,0 km/h (0 Bft)
20.03.2021 15:15 0,9 C 3,5 C 2,3 C 3,3 C 3,3 C 2,4 C 66 % 69 % 1029,3 hPa 0,0 l/m 2,3 km/h (1 Bft) SW 225 0 min -4,7 C 3,3 C 2,9 km/h (1 Bft)
20.03.2021 15:20 0,9 C 3,5 C 2,3 C 2,8 C 2,8 C 1,9 C 66 % 68 % 1029,3 hPa 0,0 l/m 3,4 km/h (1 Bft) SW 225 0 min -4,7 C 2,8 C 0,0 km/h (0 Bft)
20.03.2021 15:25 0,9 C 3,5 C 2,3 C 3,1 C 3,1 C 2,2 C 66 % 68 % 1029,3 hPa 0,0 l/m 2,7 km/h (1 Bft) NO 45 0 min -4,7 C 3,1 C 0,0 km/h (0 Bft)
20.03.2021 15:30 1,0 C 3,5 C 2,3 C 3,2 C 3,2 C 2,2 C 66 % 68 % 1029,3 hPa 0,0 l/m 0,8 km/h (0 Bft) W 270 0 min -4,6 C 3,2 C 0,0 km/h (0 Bft)
20.03.2021 15:35 1,1 C 3,5 C 2,3 C 3,1 C 3,1 C 2,0 C 66 % 68 % 1029,3 hPa 0,0 l/m 1,3 km/h (1 Bft) SW 225 0 min -4,5 C 3,1 C 6,8 km/h (2 Bft)
20.03.2021 15:40 0,9 C 3,5 C 1,9 C 1,7 C 1,7 C 0,8 C 65 % 67 % 1029,3 hPa 0,0 l/m 3,9 km/h (1 Bft) S 180 0 min -4,9 C 1,7 C 3,9 km/h (1 Bft)
20.03.2021 15:45 0,7 C 3,5 C 1,9 C 1,2 C 1,2 C 0,5 C 65 % 67 % 1029,3 hPa 0,0 l/m 4,5 km/h (1 Bft) SW 225 0 min -5,1 C 1,2 C 2,3 km/h (1 Bft)
20.03.2021 15:50 0,8 C 3,5 C 1,9 C 1,9 C 1,9 C 1,1 C 65 % 68 % 1027,9 hPa 0,0 l/m 3,2 km/h (1 Bft) S-SW 202 0 min -5,0 C 1,9 C 7,1 km/h (2 Bft)
20.03.2021 15:55 0,8 C 3,5 C 1,8 C 1,8 C 1,8 C 1,0 C 65 % 68 % 1027,9 hPa 0,0 l/m 3,2 km/h (1 Bft) W-SW 247 0 min -5,0 C 1,8 C 3,7 km/h (1 Bft)
20.03.2021 16:00 0,8 C 3,5 C 1,6 C 1,8 C 1,8 C 1,0 C 65 % 68 % 1027,9 hPa 0,0 l/m 2,4 km/h (1 Bft) SW 225 0 min -5,0 C 1,8 C 0,0 km/h (0 Bft)
20.03.2021 16:05 0,8 C 3,5 C 1,6 C 1,8 C 1,8 C 1,0 C 65 % 68 % 1027,9 hPa 0,0 l/m 1,6 km/h (1 Bft) S-SW 202 0 min -5,0 C 1,8 C 2,9 km/h (1 Bft)
20.03.2021 16:11 0,8 C 3,5 C 1,5 C 1,7 C 1,7 C 0,9 C 65 % 68 % 1028,1 hPa 0,0 l/m 1,8 km/h (1 Bft) N 0 0 min -5,0 C 1,7 C 5,5 km/h (1 Bft)
20.03.2021 16:31 0,6 C 3,5 C 1,4 C 0,6 C 0,5 C 0,0 C 66 % 69 % 1028,1 hPa 0,0 l/m 4,2 km/h (1 Bft) SW 225 0 min -5,0 C 0,5 C 3,7 km/h (1 Bft)
20.03.2021 16:32 0,6 C 3,5 C 1,4 C 0,6 C 0,5 C 0,0 C 66 % 69 % 1028,1 hPa 0,0 l/m 4,2 km/h (1 Bft) SW 225 0 min -5,0 C 0,5 C 3,7 km/h (1 Bft)
20.03.2021 16:45 0,7 C 3,5 C 1,3 C 1,1 C 1,1 C 0,4 C 66 % 69 % 1028,1 hPa 0,0 l/m 3,2 km/h (1 Bft) SW 225 0 min -4,9 C 1,1 C 2,9 km/h (1 Bft)
20.03.2021 16:50 0,7 C 3,5 C 1,3 C 1,4 C 1,4 C 0,7 C 66 % 69 % 1028,1 hPa 0,0 l/m 2,1 km/h (1 Bft) SW 225 0 min -4,9 C 1,4 C 2,3 km/h (1 Bft)
20.03.2021 16:55 0,7 C 3,5 C 1,2 C 1,4 C 1,4 C 0,7 C 66 % 70 % 1028,1 hPa 0,0 l/m 1,0 km/h (0 Bft) S 180 0 min -4,9 C 1,4 C 2,4 km/h (1 Bft)
20.03.2021 17:00 0,7 C 3,5 C 1,1 C 1,3 C 1,3 C 0,6 C 66 % 70 % 1028,1 hPa 0,0 l/m 0,6 km/h (0 Bft) SW 225 0 min -4,9 C 1,3 C 2,6 km/h (1 Bft)
20.03.2021 17:05 0,7 C 3,5 C 1,1 C 1,2 C 1,2 C 0,5 C 66 % 70 % 1028,1 hPa 0,0 l/m 1,8 km/h (1 Bft) S-SW 202 0 min -4,9 C 1,2 C 5,3 km/h (1 Bft)
20.03.2021 17:10 0,7 C 3,5 C 1,0 C 1,1 C 1,1 C 0,4 C 66 % 70 % 1028,1 hPa 0,0 l/m 2,6 km/h (1 Bft) SW 225 0 min -4,9 C 1,1 C 5,3 km/h (1 Bft)
20.03.2021 17:15 0,7 C 3,5 C 0,9 C 1,0 C 1,0 C 0,3 C 66 % 71 % 1028,1 hPa 0,0 l/m 1,8 km/h (1 Bft) SW 225 0 min -4,9 C 1,0 C 0,0 km/h (0 Bft)
20.03.2021 17:20 0,6 C 3,5 C 0,8 C 0,7 C 0,7 C 0,1 C 66 % 70 % 1028,1 hPa 0,0 l/m 2,7 km/h (1 Bft) SW 225 0 min -5,0 C 0,7 C 5,5 km/h (1 Bft)
20.03.2021 17:25 0,6 C 3,5 C 0,8 C 0,6 C 0,6 C 0,0 C 66 % 70 % 1028,1 hPa 0,0 l/m 2,7 km/h (1 Bft) SW 225 0 min -5,0 C 0,6 C 1,9 km/h (1 Bft)
20.03.2021 17:30 0,7 C 3,5 C 0,8 C 0,8 C 0,8 C 0,1 C 66 % 71 % 1027,9 hPa 0,0 l/m 1,4 km/h (1 Bft) SW 225 0 min -4,9 C 0,8 C 4,7 km/h (1 Bft)
20.03.2021 17:35 0,6 C 3,5 C 0,8 C 0,8 C 0,8 C 0,2 C 66 % 71 % 1027,9 hPa 0,0 l/m 1,0 km/h (0 Bft) SW 225 0 min -5,0 C 0,8 C 3,5 km/h (1 Bft)
20.03.2021 17:40 0,7 C 3,5 C 0,7 C 0,7 C 0,7 C 0,0 C 66 % 71 % 1027,9 hPa 0,0 l/m 1,9 km/h (1 Bft) SW 225 0 min -4,9 C 0,7 C 4,7 km/h (1 Bft)
20.03.2021 17:45 0,7 C 3,5 C 0,6 C 0,6 C 0,4 C 0,0 C 66 % 70 % 1027,9 hPa 0,0 l/m 2,7 km/h (1 Bft) S 180 0 min -4,9 C 0,4 C 1,6 km/h (1 Bft)
20.03.2021 17:50 0,6 C 3,5 C 0,5 C 0,6 C 0,5 C 0,0 C 66 % 70 % 1027,9 hPa 0,0 l/m 2,3 km/h (1 Bft) W-SW 247 0 min -5,0 C 0,5 C 0,0 km/h (0 Bft)
20.03.2021 17:55 0,5 C 3,5 C 0,5 C 0,5 C 0,5 C 0,0 C 66 % 70 % 1027,9 hPa 0,0 l/m 1,9 km/h (1 Bft) S 180 0 min -5,1 C 0,5 C 9,0 km/h (2 Bft)
20.03.2021 18:00 0,5 C 3,5 C 0,5 C 0,5 C 0,4 C 0,0 C 66 % 71 % 1027,9 hPa 0,0 l/m 2,4 km/h (1 Bft) S 180 0 min -5,1 C 0,4 C 0,0 km/h (0 Bft)
20.03.2021 18:05 0,5 C 3,5 C 0,5 C 0,4 C 0,3 C 0,0 C 66 % 71 % 1027,9 hPa 0,0 l/m 2,6 km/h (1 Bft) SW 225 0 min -5,1 C 0,3 C 5,0 km/h (1 Bft)
20.03.2021 18:11 0,5 C 3,5 C 0,4 C 0,4 C 0,3 C 0,0 C 66 % 70 % 1027,1 hPa 0,0 l/m 1,4 km/h (1 Bft) N 0 0 min -5,1 C 0,3 C 2,7 km/h (1 Bft)
20.03.2021 18:16 0,5 C 3,5 C 0,3 C 0,3 C 0,0 C 0,0 C 66 % 70 % 1027,1 hPa 0,0 l/m 2,7 km/h (1 Bft) O 90 0 min -5,1 C 0,0 C 4,3 km/h (1 Bft)
20.03.2021 18:21 0,4 C 3,5 C 0,3 C 0,2 C -0,1 C 0,0 C 66 % 71 % 1027,1 hPa 0,0 l/m 2,6 km/h (1 Bft) S 180 0 min -5,2 C -0,1 C 2,3 km/h (1 Bft)
20.03.2021 18:26 0,4 C 3,5 C 0,2 C 0,3 C 0,1 C 0,0 C 66 % 71 % 1027,1 hPa 0,0 l/m 2,3 km/h (1 Bft) S-SW 202 0 min -5,2 C 0,1 C 2,3 km/h (1 Bft)
20.03.2021 18:31 0,4 C 3,5 C 0,2 C 0,3 C 0,1 C 0,0 C 66 % 71 % 1027,1 hPa 0,0 l/m 1,9 km/h (1 Bft) W-SW 247 0 min -5,2 C 0,1 C 0,0 km/h (0 Bft)
20.03.2021 18:33 0,4 C 3,5 C 0,2 C 0,3 C 0,1 C 0,0 C 66 % 71 % 1027,1 hPa 0,0 l/m 1,9 km/h (1 Bft) W-SW 247 0 min -5,2 C 0,1 C 0,0 km/h (0 Bft)
20.03.2021 18:35 0,4 C 3,5 C 0,2 C 0,3 C 0,1 C 0,0 C 66 % 71 % 1027,1 hPa 0,0 l/m 1,9 km/h (1 Bft) W-SW 247 0 min -5,2 C 0,1 C 0,0 km/h (0 Bft)
20.03.2021 18:40 0,4 C 3,6 C 0,2 C 0,3 C 0,1 C 0,0 C 66 % 72 % 1027,1 hPa 0,0 l/m 0,8 km/h (0 Bft) S-SW 202 0 min -5,2 C 0,1 C 0,0 km/h (0 Bft)
20.03.2021 18:45 0,5 C 3,5 C 0,1 C 0,3 C 0,0 C 0,0 C 66 % 72 % 1027,1 hPa 0,0 l/m 0,2 km/h (0 Bft) S-SW 202 0 min -5,1 C 0,0 C 0,0 km/h (0 Bft)
20.03.2021 18:50 0,4 C 3,5 C 0,2 C 0,3 C 0,0 C 0,0 C 67 % 71 % 1027,1 hPa 0,0 l/m 0,2 km/h (0 Bft) SW 225 0 min -5,0 C 0,0 C 0,0 km/h (0 Bft)
20.03.2021 18:55 0,4 C 3,5 C 0,1 C 0,2 C -0,1 C 0,0 C 67 % 71 % 1027,1 hPa 0,0 l/m 0,3 km/h (0 Bft) S 180 0 min -5,0 C -0,1 C 3,2 km/h (1 Bft)
20.03.2021 19:00 0,4 C 3,5 C 0,1 C 0,2 C -0,1 C 0,0 C 67 % 71 % 1027,1 hPa 0,0 l/m 0,2 km/h (0 Bft) S-SO 157 0 min -5,0 C -0,1 C 0,0 km/h (0 Bft)
20.03.2021 19:05 0,4 C 3,5 C 0,0 C 0,2 C -0,1 C 0,0 C 67 % 72 % 1027,1 hPa 0,0 l/m 0,2 km/h (0 Bft) W-SW 247 0 min -5,0 C -0,1 C 0,0 km/h (0 Bft)
20.03.2021 19:10 0,4 C 3,5 C 0,0 C 0,2 C -0,2 C 0,0 C 67 % 72 % 1027,1 hPa 0,0 l/m 0,0 km/h (0 Bft) S 180 0 min -5,0 C -0,2 C 1,6 km/h (1 Bft)
20.03.2021 19:15 0,3 C 3,5 C -0,1 C 0,1 C -0,3 C 0,0 C 67 % 72 % 1027,1 hPa 0,0 l/m 0,2 km/h (0 Bft) SO 135 0 min -5,1 C -0,3 C 0,0 km/h (0 Bft)
20.03.2021 19:20 0,3 C 3,5 C -0,1 C 0,1 C -0,3 C 0,0 C 68 % 72 % 1027,1 hPa 0,0 l/m 0,2 km/h (0 Bft) NO 45 0 min -4,9 C -0,3 C 0,0 km/h (0 Bft)
20.03.2021 19:25 0,3 C 3,5 C -0,1 C 0,1 C -0,4 C 0,0 C 68 % 72 % 1027,1 hPa 0,0 l/m 0,3 km/h (0 Bft) O-SO 112 0 min -4,9 C -0,4 C 0,0 km/h (0 Bft)
20.03.2021 19:30 0,2 C 3,5 C -0,1 C 0,0 C -0,4 C 0,0 C 68 % 72 % 1026,3 hPa 0,0 l/m 0,5 km/h (0 Bft) S-SW 202 0 min -5,0 C -0,4 C 2,6 km/h (1 Bft)
20.03.2021 19:35 0,3 C 3,5 C -0,1 C 0,1 C -0,4 C 0,0 C 68 % 72 % 1026,3 hPa 0,0 l/m 0,3 km/h (0 Bft) O 90 0 min -4,9 C -0,4 C 0,0 km/h (0 Bft)
20.03.2021 19:40 0,3 C 3,5 C -0,1 C 0,1 C -0,4 C 0,0 C 68 % 72 % 1026,3 hPa 0,0 l/m 0,5 km/h (0 Bft) W-SW 247 0 min -4,9 C -0,4 C 0,0 km/h (0 Bft)
20.03.2021 19:45 0,3 C 3,5 C -0,1 C 0,1 C -0,3 C 0,0 C 68 % 72 % 1026,3 hPa 0,0 l/m 0,3 km/h (0 Bft) SO 135 0 min -4,9 C -0,3 C 0,0 km/h (0 Bft)
20.03.2021 19:50 0,3 C 3,5 C -0,1 C 0,1 C -0,3 C 0,0 C 68 % 72 % 1026,9 hPa 0,0 l/m 0,0 km/h (0 Bft) W-SW 247 0 min -4,9 C -0,3 C 0,0 km/h (0 Bft)
20.03.2021 19:55 0,2 C 3,5 C -0,1 C 0,0 C -0,3 C 0,0 C 68 % 72 % 1026,9 hPa 0,0 l/m 0,2 km/h (0 Bft) S-SO 157 0 min -5,0 C -0,3 C 0,0 km/h (0 Bft)
20.03.2021 20:00 0,1 C 3,5 C -0,1 C 0,0 C -0,3 C 0,0 C 68 % 72 % 1026,9 hPa 0,0 l/m 0,2 km/h (0 Bft) S-SO 157 0 min -5,1 C -0,3 C 0,0 km/h (0 Bft)
20.03.2021 20:05 0,1 C 3,5 C -0,2 C 0,0 C -0,3 C 0,0 C 68 % 72 % 1026,9 hPa 0,0 l/m 0,3 km/h (0 Bft) O-NO 67 0 min -5,1 C -0,3 C 0,0 km/h (0 Bft)
20.03.2021 20:11 0,1 C 3,5 C -0,2 C -0,1 C -0,4 C 0,0 C 68 % 72 % 1026,9 hPa 0,0 l/m 0,5 km/h (0 Bft) N 0 0 min -5,1 C -0,4 C 2,9 km/h (1 Bft)
20.03.2021 20:26 0,1 C 3,5 C -0,2 C 0,0 C -0,3 C 0,0 C 68 % 71 % 1026,9 hPa 0,0 l/m 1,3 km/h (1 Bft) O-SO 112 0 min -5,1 C -0,3 C 5,1 km/h (1 Bft)
20.03.2021 20:27 0,0 C 3,5 C -0,2 C -0,1 C -0,3 C 0,0 C 68 % 72 % 1026,9 hPa 0,0 l/m 0,5 km/h (0 Bft) W-SW 247 0 min -5,2 C -0,3 C 0,0 km/h (0 Bft)
20.03.2021 20:39 0,0 C 3,5 C -0,2 C -0,1 C -0,3 C 0,0 C 68 % 72 % 1026,9 hPa 0,0 l/m 0,2 km/h (0 Bft) W-SW 247 0 min -5,2 C -0,3 C 0,0 km/h (0 Bft)
20.03.2021 20:45 0,0 C 3,5 C -0,2 C -0,1 C -0,3 C 0,0 C 68 % 72 % 1026,9 hPa 0,0 l/m 0,5 km/h (0 Bft) O 90 0 min -5,2 C -0,3 C 3,1 km/h (1 Bft)
20.03.2021 20:50 0,0 C 3,5 C -0,2 C -0,1 C -0,3 C 0,0 C 68 % 72 % 1026,2 hPa 0,0 l/m 0,6 km/h (0 Bft) N-NW 337 0 min -5,2 C -0,3 C 0,0 km/h (0 Bft)
20.03.2021 20:55 0,0 C 3,5 C -0,2 C -0,1 C -0,3 C 0,0 C 68 % 72 % 1026,2 hPa 0,0 l/m 0,6 km/h (0 Bft) N 360 0 min -5,2 C -0,3 C 3,7 km/h (1 Bft)
20.03.2021 21:00 0,0 C 3,5 C -0,2 C -0,1 C -0,3 C 0,0 C 68 % 72 % 1026,2 hPa 0,0 l/m 1,1 km/h (1 Bft) W-SW 247 0 min -5,2 C -0,3 C 3,2 km/h (1 Bft)
20.03.2021 21:05 0,0 C 3,5 C -0,2 C -0,1 C -0,3 C 0,0 C 68 % 72 % 1026,2 hPa 0,0 l/m 1,0 km/h (0 Bft) O 90 0 min -5,2 C -0,3 C 0,0 km/h (0 Bft)
20.03.2021 21:10 0,0 C 3,5 C -0,2 C -0,1 C -0,3 C 0,0 C 68 % 72 % 1026,0 hPa 0,0 l/m 0,6 km/h (0 Bft) NW 315 0 min -5,2 C -0,3 C 2,6 km/h (1 Bft)
20.03.2021 21:15 0,0 C 3,5 C -0,2 C -0,1 C -0,3 C 0,0 C 68 % 72 % 1026,0 hPa 0,0 l/m 0,8 km/h (0 Bft) O-SO 112 0 min -5,2 C -0,3 C 6,9 km/h (2 Bft)
20.03.2021 21:20 0,0 C 3,5 C -0,3 C -0,1 C -0,3 C 0,0 C 68 % 72 % 1026,0 hPa 0,0 l/m 1,6 km/h (1 Bft) N-NO 22 0 min -5,2 C -0,3 C 0,0 km/h (0 Bft)
20.03.2021 21:25 0,0 C 3,5 C -0,2 C -0,1 C -0,3 C 0,0 C 68 % 72 % 1026,0 hPa 0,0 l/m 1,6 km/h (1 Bft) N-NO 22 0 min -5,2 C -0,3 C 0,0 km/h (0 Bft)
20.03.2021 21:30 0,1 C 3,5 C -0,3 C -0,1 C -0,4 C 0,0 C 68 % 72 % 1025,6 hPa 0,0 l/m 1,0 km/h (0 Bft) S 180 0 min -5,1 C -0,4 C 0,0 km/h (0 Bft)
20.03.2021 21:35 0,1 C 3,5 C -0,3 C -0,1 C -0,4 C 0,0 C 68 % 72 % 1025,6 hPa 0,0 l/m 1,1 km/h (1 Bft) SW 225 0 min -5,1 C -0,4 C 0,0 km/h (0 Bft)
20.03.2021 21:40 -0,1 C 3,5 C -0,4 C -0,2 C -0,5 C 0,0 C 68 % 72 % 1025,6 hPa 0,0 l/m 1,0 km/h (0 Bft) SW 225 0 min -5,3 C -0,5 C 4,3 km/h (1 Bft)
20.03.2021 21:45 -0,1 C 3,5 C -0,4 C -0,3 C -0,6 C 0,0 C 68 % 72 % 1025,6 hPa 0,0 l/m 1,9 km/h (1 Bft) NO 45 0 min -5,3 C -0,6 C 1,8 km/h (1 Bft)
20.03.2021 21:50 -0,1 C 3,5 C -0,5 C -0,3 C -0,7 C 0,0 C 68 % 72 % 1025,6 hPa 0,0 l/m 2,1 km/h (1 Bft) N 360 0 min -5,3 C -0,7 C 0,0 km/h (0 Bft)
20.03.2021 21:55 -0,1 C 3,5 C -0,5 C -0,3 C -0,7 C 0,0 C 68 % 72 % 1025,6 hPa 0,0 l/m 1,3 km/h (1 Bft) SO 135 0 min -5,3 C -0,7 C 0,0 km/h (0 Bft)
20.03.2021 22:00 -0,1 C 3,5 C -0,5 C -0,3 C -0,7 C 0,0 C 68 % 72 % 1025,6 hPa 0,0 l/m 1,1 km/h (1 Bft) W-SW 247 0 min -5,3 C -0,7 C 0,0 km/h (0 Bft)
20.03.2021 22:05 -0,1 C 3,5 C -0,4 C -0,3 C -0,7 C 0,0 C 68 % 72 % 1025,6 hPa 0,0 l/m 1,3 km/h (1 Bft) W 270 0 min -5,3 C -0,7 C 5,8 km/h (2 Bft)
20.03.2021 22:11 -0,1 C 3,5 C -0,4 C -0,2 C -0,5 C 0,0 C 68 % 71 % 1025,4 hPa 0,0 l/m 1,4 km/h (1 Bft) N 0 0 min -5,3 C -0,5 C 3,2 km/h (1 Bft)
20.03.2021 22:26 -0,1 C 3,5 C -0,3 C -0,2 C -0,4 C 0,0 C 68 % 72 % 1025,4 hPa 0,0 l/m 0,3 km/h (0 Bft) W-NW 292 0 min -5,3 C -0,4 C 1,6 km/h (1 Bft)
20.03.2021 22:27 -0,1 C 3,5 C -0,3 C -0,2 C -0,4 C 0,0 C 68 % 72 % 1025,4 hPa 0,0 l/m 1,0 km/h (0 Bft) S 180 0 min -5,3 C -0,4 C 5,0 km/h (1 Bft)
20.03.2021 22:39 -0,1 C 3,5 C -0,3 C -0,2 C -0,3 C 0,0 C 68 % 72 % 1025,4 hPa 0,0 l/m 1,3 km/h (1 Bft) SW 225 0 min -5,3 C -0,3 C 5,0 km/h (1 Bft)
20.03.2021 22:45 -0,1 C 3,5 C -0,3 C -0,2 C -0,3 C 0,0 C 68 % 72 % 1025,4 hPa 0,0 l/m 2,4 km/h (1 Bft) N-NW 337 0 min -5,3 C -0,3 C 4,0 km/h (1 Bft)
20.03.2021 22:50 0,1 C 3,5 C -0,3 C -0,2 C -0,8 C 0,0 C 68 % 72 % 1025,4 hPa 0,0 l/m 3,1 km/h (1 Bft) S 180 0 min -5,1 C -0,8 C 0,0 km/h (0 Bft)
20.03.2021 22:55 -0,1 C 3,5 C -0,3 C -0,2 C -0,3 C 0,0 C 68 % 72 % 1025,4 hPa 0,0 l/m 2,1 km/h (1 Bft) O-SO 112 0 min -5,3 C -0,3 C 3,4 km/h (1 Bft)
20.03.2021 23:00 0,1 C 3,5 C -0,3 C 0,0 C -0,2 C 0,0 C 68 % 72 % 1025,4 hPa 0,0 l/m 1,8 km/h (1 Bft) W-SW 247 0 min -5,1 C -0,2 C 7,7 km/h (2 Bft)
20.03.2021 23:05 0,0 C 3,5 C -0,3 C -0,1 C -0,2 C 0,0 C 68 % 72 % 1025,4 hPa 0,0 l/m 2,3 km/h (1 Bft) SO 135 0 min -5,2 C -0,2 C 0,0 km/h (0 Bft)
20.03.2021 23:10 0,0 C 3,5 C -0,2 C -0,1 C -0,2 C 0,0 C 68 % 72 % 1025,4 hPa 0,0 l/m 1,4 km/h (1 Bft) O 90 0 min -5,2 C -0,2 C 3,1 km/h (1 Bft)
20.03.2021 23:15 0,0 C 3,5 C -0,2 C -0,1 C -0,2 C 0,0 C 68 % 72 % 1025,4 hPa 0,0 l/m 1,1 km/h (1 Bft) W-SW 247 0 min -5,2 C -0,2 C 4,7 km/h (1 Bft)
20.03.2021 23:20 0,0 C 3,5 C -0,2 C -0,1 C -0,2 C 0,0 C 68 % 72 % 1025,4 hPa 0,0 l/m 1,6 km/h (1 Bft) N-NO 22 0 min -5,2 C -0,2 C 0,0 km/h (0 Bft)
20.03.2021 23:25 0,1 C 3,5 C -0,2 C 0,0 C -0,2 C 0,0 C 68 % 72 % 1025,4 hPa 0,0 l/m 1,8 km/h (1 Bft) S-SO 157 0 min -5,1 C -0,2 C 0,0 km/h (0 Bft)
20.03.2021 23:30 0,1 C 3,5 C -0,2 C 0,0 C -0,1 C 0,0 C 69 % 72 % 1024,6 hPa 0,0 l/m 1,4 km/h (1 Bft) S-SO 157 0 min -4,9 C -0,1 C 0,0 km/h (0 Bft)
20.03.2021 23:35 0,1 C 3,5 C -0,1 C 0,0 C -0,1 C 0,0 C 69 % 72 % 1024,6 hPa 0,0 l/m 1,0 km/h (0 Bft) W 270 0 min -4,9 C -0,1 C 1,8 km/h (1 Bft)
20.03.2021 23:40 0,1 C 3,5 C -0,1 C 0,0 C -0,1 C 0,0 C 69 % 72 % 1024,6 hPa 0,0 l/m 0,8 km/h (0 Bft) S-SW 202 0 min -4,9 C -0,1 C 4,2 km/h (1 Bft)
20.03.2021 23:45 0,1 C 3,3 C -0,1 C 0,0 C -0,1 C 0,0 C 69 % 72 % 1024,6 hPa 0,0 l/m 1,6 km/h (1 Bft) SW 225 0 min -4,9 C -0,1 C 0,0 km/h (0 Bft)
20.03.2021 23:50 0,1 C 3,3 C -0,1 C 0,1 C 0,0 C 0,0 C 69 % 73 % 1024,3 hPa 0,0 l/m 1,1 km/h (1 Bft) O-NO 67 0 min -4,9 C 0,0 C 0,0 km/h (0 Bft)
20.03.2021 23:55 0,3 C 3,3 C -0,1 C 0,2 C 0,0 C 0,0 C 70 % 73 % 1024,3 hPa 0,0 l/m 0,3 km/h (0 Bft) S-SO 157 0 min -4,5 C 0,0 C 0,0 km/h (0 Bft)
_ Min-Zeit 06:10 23:45 05:40 06:00 06:00 00:00 15:40 15:40 23:50 - 00:00 - - - 06:10 06:00 00:00
Minimum _ -6,1 C 3,3 C -5,7 C -6,6 C -7,8 C 0,0 C 65 % 67 % 1024,3 hPa - 0,0 km/h (0 Bft) - - - -8,4 C -7,8 C 0,0 km/h (0 Bft)
_ Max-Zeit 15:35 00:20 11:55 09:50 09:50 08:45 07:00 05:35 11:10 00:00 15:45 - - 06:50 09:55 09:50 12:30
Maximum _ 1,1 C 4,8 C 4,1 C 7,2 C 7,2 C 9,2 C 87 % 92 % 1030,5 hPa 0,0 l/m 4,5 km/h
SW (1 Bft)
- - 5 min -3,7 C 7,2 C 12,1 km/h
W (2 Bft)
Durchschnitt _ -1,4 C 3,9 C -1,0 C 0,0 C -0,4 C 1,6 C 74 % 79 % 1028,3 hPa #0,0 l/m 0,9 km/h (0 Bft) SW - #5:50 h -5,5 C -0,4 C 1,4 km/h (1 Bft)
2021 www.wetterstation-wechselburg.de